Weather in Oleksiivka

Ukraine / Donetsk Region     48°01′06″N   36°56′59″E
temp.,
°C
wind,
m/s
gust,
m/s
humid.,
%
clouds,
%
prec.,
mm/h
press.,
hPa
HPBL,
m
9 may, sun
sun900:00+8nnw81491100 5.3 1011729
03:00+6nnw71289100 8.5 1013916
06:00+5nw61288100 0.0 1014772
09:00+7nw81074100 0.0 1017998
12:00+11nnw91149100 0.0 10171736
15:00+13nw9114079 0.0 10182476
18:00+12nnw8104870 0.0 10202112
21:00+7nw49665 0.0 1023203
10 may, mon
mon1000:00+5nw4107639 0.0 1024209
03:00+4nw410824 0.0 1025220
06:00+4nw511800 0.0 1025319
09:00+10nnw7115597 0.0 10241448
12:00+14nnw91140100 0.0 10222555
15:00+14nnw81140100 0.0 10202421
18:00+13nnw81351100 0.0 10191902
21:00+11nw81454100 0.0 10171331
11 may, tue
tue1100:00+9nw101773100 0.4 10131031
03:00+9nnw91692100 2.3 10111068
06:00+10n61194100 0.3 1011943
09:00+9ne6108299 0.4 10121049
12:00+10nne6967100 0.1 10131274
15:00+9nne7876100 0.4 10131097
18:00+7n3588100 0.8 10141040
21:00+7ese2492100 1.7 1014273
12 may, wed
wed1200:00+7ese4890100 0.6 1014394
03:00+6ese479583 1.0 1015281
06:00+6ese379567 0.0 1015246
09:00+12se787015 0.1 10151195
12:00+14sse9117198 1.8 10151414
15:00+14sse10117085 3.5 10161275
18:00+12sse51172100 0.0 1016722
21:00+12se357985 0.0 1016113
13 may, thu
thu1300:00+10se3792100 0.0 1016122
03:00+10ese499439 0.0 1016158
06:00+10ese5128768 0.0 1016254
09:00+17ese7116361 0.0 1015621
12:00+21ese895162 0.0 10141133
15:00+22se895187 0.0 10131183
18:00+21ese6116555 0.0 1013753
21:00+16ese513865 0.0 1013358